Skip Page Navigation
NASA JPL Caltech
NASA Logo - Jet Propulsion Laboratory + View the NASA Portal
+ Near-Earth Object (NEO) Program
Search JPL
JPL Home Earth Solar System Stars & Galaxies Technology
JPL Solar System Dynamics
BODIES ORBITS EPHEMERIDES TOOLS PHYSICAL DATA DISCOVERY FAQ SITE MAP
JPL Small-Body Database Browser
Search: [ help ]  
247652 Hajossy (2002 WO21)
Classification: Main-belt Asteroid          SPK-ID: 2247652
Ephemeris | Orbit Diagram | Orbital Elements | Physical Parameters | Discovery Circumstances | Close-Approach Data ]

[ show orbit diagram ]
Orbital Elements at Epoch 2456800.5 (2014-May-23.0) TDB
Reference: JPL 1 (heliocentric ecliptic J2000)
 Element Value Uncertainty (1-sigma)   Units 
e .1716250009932403 2.5368e-07  
a 2.643886086112373 1.0668e-07 AU
q 2.190129133957323 7.4587e-07 AU
i 9.932638328395686 1.9099e-05 deg
node 314.8527213850256 6.2589e-05 deg
peri 48.1944294671457 0.00012497 deg
M 284.8464849577235 0.00010731 deg
tp 2457128.300289702892
(2015-Apr-15.80028970)
0.00048501 JED
period 1570.2273436799
4.30
9.5038e-05
2.602e-07
d
yr
n .2292661641952582 1.3876e-08 deg/d
Q 3.097643038267423 1.2499e-07 AU
  Orbit Determination Parameters
   # obs. used (total)      94  
   data-arc span      3365 days (9.21 yr)  
   first obs. used      2002-11-15  
   last obs. used      2012-02-01  
   planetary ephem.      DE431  
   SB-pert. ephem.      SB431-BIG16  
   condition code      0  
   fit RMS      .57357  
   data source      ORB  
   producer      Otto Matic  
   solution date      2013-Aug-09 08:46:58  

Additional Information
 Earth MOID = 1.19893 AU 
 T_jup = 3.352 
[ show covariance matrix ]

Ephemeris | Orbit Diagram | Orbital Elements | Physical Parameters | Discovery Circumstances | Close-Approach Data ]

Physical Parameter Table
Parameter Symbol Value Units Sigma Reference Notes
absolute magnitude H 16.7 mag n/a MPO220678  

247652 Hajossy           Discovered 2002 Nov. 26 by NEAT at Palomar.
Rudolf Hajossy (b. 1941) is enthusiastic physicist and senior lecturer at the Comenius University in Bratislava. A specialist in electronics and vacuum physics, he focused on application of praxis in physics. Hajossy influenced several generations of physicists in Slovakia. Name suggested by S. Kürti.
NOTE: some special characters may not display properly (any characters within {} are an attempt to place the proper accent above a character)
Reference: 20110615/MPCPages.arcLast Updated: 2013-03-28

[ show close-approach data ]
Ephemeris | Orbit Diagram | Orbital Elements | Physical Parameters | Discovery Circumstances | Close-Approach Data ]
ABOUT SSD CREDITS/AWARDS PRIVACY/COPYRIGHT GLOSSARY LINKS
FirstGov 2014-Apr-23 07:31 UT
(server date/time)  
NASA Home Page
Site Manager:   Donald K. Yeomans
Webmaster  Alan B. Chamberlin